Regional Weather Roundup
Issued by NWS

Home | Current Version | Previous Version | Graphics & Text | Print | Product List | Glossary Off
Versions: 1 2 3 4 5 6 7 8 9 10 11 12 13 14 15 16 17 18 19 20 21 22 23 24 25 26 27 28 29 30 31 32 33 34 35 36 37 38 39 40 41 42 43 44 45 46 47 48 49 50

000
ASUS43 KMKX 052011
RWRWI

WISCONSIN REGIONAL WEATHER ROUNDUP
NATIONAL WEATHER SERVICE MILWAUKEE/SULLIVAN WI
300 PM CDT TUE MAY 05 2015

NOTE: "FAIR" INDICATES FEW OR NO CLOUDS BELOW 12,000 FEET WITH NO
SIGNIFICANT WEATHER AND/OR OBSTRUCTIONS TO VISIBILITY.

WIZ001-002-006>008-014>016-023>028-052100-
NORTHWEST WISCONSIN

CITY           SKY/WX    TMP DP  RH WIND       PRES   REMARKS
SUPERIOR ARPT  SUNNY     57  33  40 NE10      30.21S
ASHLAND        SUNNY     65  43  44 N13       30.21F
HAYWARD        SUNNY     72  24  16 S12       30.20F
SIREN          SUNNY     73  30  20 SE15G21   30.18F
CUMBERLAND     SUNNY     70  30  23 SE14G20   30.20F
RICE LAKE      SUNNY     71  28  20 SE14G22   30.22F
CHETEK         SUNNY     71  36  27 E12G22    30.21F
LADYSMITH      SUNNY     70  27  20 SE12      30.23F
EAU CLAIRE     MOSUNNY   69  32  25 SE14G20   30.20F
MENOMONIE      MOSUNNY   68  33  27 SE15G25   30.20F
NEW RICHMOND   MOSUNNY   70  37  30 SE16G23   30.19S
OSCEOLA        SUNNY     72  38  28 SE21G26   30.20F
$$

WIZ003>005-009-010-017-018-052100-
NORTH CENTRAL WISCONSIN

CITY           SKY/WX    TMP DP  RH WIND       PRES   REMARKS
MANITOWISH WTR SUNNY     69  32  26 SW9G17    30.23F
ARBOR VITAE    SUNNY     72  31  21 S10G17    30.23F
WOODRUFF       SUNNY     72  31  21 S10G17    30.23F
RHINELANDER    SUNNY     69  30  23 SE8       30.25F
EAGLE RIVER    SUNNY     69  22  17 CALM      30.24F
LAND O LAKES   SUNNY     71  25  17 S8        30.25F
PHILLIPS       SUNNY     69  31  24 SE12G21   30.23F
TOMAHAWK       SUNNY     69  29  22 SE5       30.25F
MEDFORD        SUNNY     67  26  21 SE13G18   30.24F
MERRILL        SUNNY     69  27  20 S13G20    30.25F
$$

WIZ029-030-035-036-043>047-052100-
CENTRAL WISCONSIN

CITY           SKY/WX    TMP DP  RH WIND       PRES   REMARKS
WAUSAU         MOSUNNY   69  19  15 SE14G22   30.24F
MOSINEE        SUNNY     66  25  20 SE14G20   30.26F
MARSHFIELD     PTSUNNY   67  29  24 SE14G24   30.25S
STEVENS POINT  PTSUNNY   64  24  22 SE17G23   30.26F
WAUPACA        PTSUNNY   66  30  26 SE14      30.27F
WAUTOMA        CLOUDY    63  42  46 NE9       30.27F
WISC RAPIDS    CLOUDY    64  31  28 E15G21    30.26F
CAMP DOUGLAS   LGT RAIN  61  45  55 SE15G22   30.24S
$$

WIZ011>013-019>022-031-037>040-048>050-052100-
NORTHEAST WISCONSIN

CITY           SKY/WX    TMP DP  RH WIND       PRES   REMARKS
ANTIGO         SUNNY     65  31  27 SE12G21   30.27F
SHAWANO        MOSUNNY   68  21  16 SE12      30.28F
OCONTO         SUNNY     67  27  22 E8        30.29F
STURGEON BAY   MOSUNNY   63  25  23 E12       30.33S
GREEN BAY      MOSUNNY   65  23  20 E12       30.29F
MANITOWOC      MOSUNNY   58  35  42 VRB5      30.31F
APPLETON       PTSUNNY   64  36  34 SE14      30.28F
CLINTONVILLE   MOSUNNY   64  18  16 SE12      30.27F
OSHKOSH        CLOUDY    60  45  57 SE10      30.27F
$$

WIZ032>034-041-042-053>061-052100-
SOUTHWEST WISCONSIN

CITY           SKY/WX    TMP DP  RH WIND       PRES   REMARKS
LA CROSSE      LGT RAIN  58  51  78 SE10G20   30.22F
SPARTA         LGT RAIN  59  47  63 E10       30.25S
VIROQUA        CLOUDY    52  52 100 E12       30.23F
BOSCOBEL       CLOUDY    56  51  84 NE3       30.23F HAZE
PRAIRIE DU CHI DRIZZLE   54  52  95 E8        30.21S
PLATTEVILLE    CLOUDY    55  53  95 E16       30.21S
$$

WIZ056-057-062-063-064-067-068-052100-
SOUTH CENTRAL WISCONSIN

CITY           SKY/WX    TMP DP  RH WIND       PRES   REMARKS
REEDSBURG      CLOUDY    53  51  94 E5        30.25S
BARABOO/DELLS  NOT AVBL
LONE ROCK      CLOUDY    56  52  86 E10       30.24S
MINERAL POINT  LGT RAIN  55  52  88 E10       30.22F
MADISON        CLOUDY    54  50  86 E12       30.25F
MIDDLETON      CLOUDY    55  52  88 E10       30.25F
WATERTOWN      CLOUDY    54  52  94 E10       30.26F
MONROE         DRIZZLE   52  52 100 NE10      30.23S
JANESVILLE     NOT AVBL
$$

WIZ051-052-058>065-066-070>072-052100-
SOUTHEAST WISCONSIN

CITY           SKY/WX    TMP DP  RH WIND       PRES   REMARKS
MILWAUKEE      LGT RAIN  47  42  83 NE10      30.29F
WAUKESHA       CLOUDY    48  46  93 E9        30.29F
MILWAUKEE/TIMM CLOUDY    48  43  81 E7        30.30F
RACINE         CLOUDY    46  43  89 NE10      30.29F
BURLINGTON     CLOUDY    46  45  95 E10       30.27S
KENOSHA        CLOUDY    48  45  89 NE12      30.27F
FOND DU LAC    CLOUDY    57  45  64 E12       30.28F
SHEBOYGAN      PTSUNNY   54  43  66 SE7       30.30F
WEST BEND      CLOUDY    52  43  71 SE10      30.29F
JUNEAU         CLOUDY    55  50  81 E10       30.28F
$$

LSZ147-162-052100-
LAKE SUPERIOR

STATION/POSITION TIME  TEMP    WIND        PRES    WAVE
                       AIR SEA DIR/SP/G            HT/PER
                 (UTC) (F)     (DEG/KT/KT) (MB)    (FT/S)
W MID LAKE BUOY  1950   39 36   30/  8/ 10 1025.2F   0
DEVILS ISLAND    2000   43      60/ 10/ 12 1024.3F
PORT WING        1900   45      20/ 19/ 22 1022.7F
SAXON HARBOR     1940   52      60/  7/  8 1023.0F
$$

LMZ867-665-643>646-052100-
LAKE MICHIGAN

STATION/POSITION TIME  TEMP    WIND        PRES    WAVE
                       AIR SEA DIR/SP/G            HT/PER
                 (UTC) (F)     (DEG/KT/KT) (MB)    (FT/S)
CHAMBERS ISLAND  1900   48     340/  5/  8 1027.1S
NORTHPORT PIER   1900   48     120/  1/  2 1027.1S
SISTER BAY       1802   61     130/ 12/ 14   N/A
KEWAUNEE LAKESHO 1900   46      40/  6/  9 1025.8F
SHEBOYGAN LAKESH 2000   44      10/  7/  8 1026.6F
PORT WASHINGTON  1940   49      40/  5/  7 1026.4F
ATWATER BUOY     1900   45     360/  6/ 10 1027.1F
MILWAUKEE LAKESH 1900   45      30/  9/ 11   N/A
KENOSHA   LAKESH 2000   44      30/ 13/ 16 1024.7F
$$

TC  - TEMPERATURE IN CELSIUS
VSB - VISIBILITY IN STATUTE MILES
WCI - WIND CHILL INDEX
HX  - HEAT INDEX




USA.gov is the U.S. government's official web portal to all federal, state and local government web resources and services.